Regional Weather Roundup
Issued by NWS Sterling, VA

Home | Current Version | Previous Version | Text Only | Print | Product List | Glossary Off
Versions: 1 2 3 4 5 6 7 8 9 10 11 12 13 14 15 16 17 18 19 20 21 22 23 24 25 26 27 28 29 30 31 32 33 34 35 36 37 38 39 40 41 42 43 44 45 46 47 48 49 50

000
ASUS41 KLWX 041910
RWRLWX

REGIONAL WEATHER ROUNDUP
NATIONAL WEATHER SERVICE BALTIMORE MD/WASHINGTON DC
300 PM EDT SAT JUL 04 2015

Note: "FAIR" indicates few or no clouds below 12,000 feet
with no significant weather and/or obstructions to visibility.
 TC=TEMPERATURE CELSIUS

 * =Non NWS site. Station does not report precipitation (e.g. rain,
    snow, etc.), thunder, or fog.

DCZ001-MDZ009-015-VAZ040>042-051-053>054-042000-
WASHINGTON METRO

CITY           SKY/WX    TMP DP  RH WIND       PRES   REMARKS
WASHINGTON NAT CLOUDY    82  70  66 S3        29.90F
DULLES         PTSUNNY   79  68  69 CALM      29.90F
ANDREWS AFB    MOSUNNY   79  73  83 VRB1      29.90F
FT BELVOIR     MOSUNNY   80  71  73 CALM      29.89F
QUANTICO       MOSUNNY   81  71  71 S10       29.90F
LEESBURG*      CLOUDY    81  72  74 S13       29.90F
MANASSAS*      MOSUNNY   82  70  65 S5          N/A
GAITHERSBURG*  MOSUNNY   77  70  78 E5        29.95F

$$

MDZ006>007-011-014-042000-
BALTIMORE METRO

CITY           SKY/WX    TMP DP  RH WIND       PRES   REMARKS
BWI AIRPORT    CLOUDY    75  68  78 E5        29.91F
MD SCIENCE CTR   N/A     74  68  81 MISG      29.92F
MARTIN STATE   CLOUDY    72  70  94 CALM      29.94S
ANNAPOLIS      CLOUDY    75  68  78 NE7       29.91F
FORT MEADE*    CLOUDY    75  68  78 NE3       29.93F

$$

MDZ012-015-019>023-042000-
MARYLAND EASTERN SHORE

CITY           SKY/WX    TMP DP  RH WIND       PRES   REMARKS
OCEAN CITY     MOSUNNY   77  67  71 E10       29.91S
SALISBURY      PTSUNNY   81  70  69 N7        29.90S
BAY BRIDGE AP*   N/A     73  68  83 NE6       29.92S
EASTON*        PTSUNNY   79  72  78 E6        29.95S

$$

MDZ017>025-042000-
SOUTHERN MARYLAND

CITY           SKY/WX    TMP DP  RH WIND       PRES   REMARKS
PATUXENT RIVER PTSUNNY   78  69  73 NE7       29.90S
ST INIGOES     CLOUDY    80  71  74 CALM      29.89F
LEONARDTOWN*   CLOUDY    79  68  69 W3        29.92F

$$

MDZ003>005-042000-
NORTH CENTRAL MARYLAND

CITY           SKY/WX    TMP DP  RH WIND       PRES   REMARKS
FREDERICK*     CLOUDY    73  72  94 N6        29.95S FOG
HAGERSTOWN APT CLOUDY    75  67  76 N8        29.93S
WESTMINSTER*   DRIZZLE   70  66  88 CALM      29.94F

$$

MDZ501>502-042000-
WESTERN MARYLAND

CITY           SKY/WX    TMP DP  RH WIND       PRES   REMARKS
OAKLAND*       PTSUNNY   66 N/A N/A N5        30.04S
CUMBERLAND*    NOT AVBL

$$

VAZ025>031-042000-
SHENANDOAH VALLEY

CITY           SKY/WX    TMP DP  RH WIND       PRES   REMARKS
WINCHESTER*    PTSUNNY   82  68  61 N7        29.91R
FRONT ROYAL*   CLOUDY    73  70  88 CALM      29.90S
LURAY*         FAIR      81  72  74 S5        29.92F
NEW MARKET*    FAIR      80  69  67 CALM      29.90F
STAUNTON*      CLOUDY    82  67  61 W8        29.97R
WAYNESBORO*    FAIR      79  66  64 W6        29.97R

$$

WVZ021-048>050-054>055-042000-
EASTERN WEST VIRGINIA PANHANDLE

CITY           SKY/WX    TMP DP  RH WIND       PRES   REMARKS
MARTINSBURG    PTSUNNY   79  68  69 N8        29.92S
PETERSBURG*    CLOUDY    80  62  54 NW6       29.95S

$$

VAZ036>039-050-042000-
CENTRAL FOOTHILLS

CITY           SKY/WX    TMP DP  RH WIND       PRES   REMARKS
CHARLOTTESVILL PTSUNNY   84  70  62 S10G20    29.90F
CULPEPER*      PTSUNNY   81  69  67 SW6       29.91S
ORANGE*        PTSUNNY   84  70  61 CALM      29.92F
GORDONSVILLE*  MOCLDY    82  72  69 SW6       29.90F
WARRENTON*     FAIR      83  73  70 SW5       29.89F

$$

VAZ055>057-042000-
NORTH AND CENTRAL PIEDMONT

CITY           SKY/WX    TMP DP  RH WIND       PRES   REMARKS
FREDERICKSBRG* MOSUNNY   86  71  60 S8        29.88F HX  91
STAFFORD*      PTSUNNY   82  71  70 SE7       29.93F

$$

NCZ024-NYZ072-PAZ021-071-VAZ022-071-042000-
OTHER REGIONAL OBSERVATIONS

CITY           SKY/WX    TMP DP  RH WIND       PRES   REMARKS
NEW YORK CITY  CLOUDY    72  61  68 CALM      29.98F
PHILADELPHIA   CLOUDY    75  63  66 NE12      29.93S
PITTSBURGH     MOSUNNY   79  59  50 W13       29.97S
ROANOKE        PTSUNNY   83  65  54 W8        29.98F
RICHMOND       CLOUDY    84  69  60 SW8       29.91F
RALEIGH        LGT RAIN  76  72  87 SW9       29.99F

$$

ANZ530>537-042000-
MARINE OBSERVATIONS

STATION/POSITION TIME  TEMP    WIND        PRES
                       AIR SEA DIR/SP/G
                 (UTC) (F)     (DEG/KT/KT) (MB)
THOMAS PT LIGHT  1800   73 76  360/  7/  8 1013.5R
BALT KEY BRIDGE  1800   73      80/  4/  4 1013.1S
COVE POINT       1800   75      30/  7/ 10 1013.3S
LEWISETTA        1800   79 80   50/  4/  6 1012.3S
SOLOMONS ISLAND  1800      80                N/A
PINEY POINT      1800          350/  7/  8   N/A

$$



USA.gov is the U.S. government's official web portal to all federal, state and local government web resources and services.